| time (UTC) | temp F | wind direction | speed knots | gust knots | rain 1hr in | rain 24hr in | rain mn in | humidity % | barometer mb |
| 20260509213006 | 91 | 197 | 0.0 | 2.6 | 0.00 | 0.00 | 0.00 | 42 | 1010.2 |
| 20260509212503 | 91 | 233 | 0.0 | 1.7 | 0.00 | 0.00 | 0.00 | 40 | 1009.8 |
| 20260509212000 | 91 | 206 | 1.7 | 1.7 | 0.00 | 0.00 | 0.00 | 43 | 1010.2 |
| 20260509211455 | 91 | 85 | 0.9 | 2.6 | 0.00 | 0.00 | 0.00 | 41 | 1010.2 |
| 20260509210952 | 91 | 19 | 2.6 | 4.3 | 0.00 | 0.00 | 0.00 | 41 | 1010.2 |
| 20260509210449 | 91 | 154 | 0.9 | 2.6 | 0.00 | 0.00 | 0.00 | 44 | 1010.2 |
| 20260509205944 | 91 | 149 | 0.9 | 4.3 | 0.00 | 0.00 | 0.00 | 43 | 1010.5 |
| 20260509205439 | 90 | 178 | 0.9 | 1.7 | 0.00 | 0.00 | 0.00 | 43 | 1010.5 |
| 20260509204935 | 90 | 120 | 1.7 | 2.6 | 0.00 | 0.00 | 0.00 | 43 | 1010.5 |
| 20260509204432 | 91 | 166 | 3.5 | 5.2 | 0.00 | 0.00 | 0.00 | 42 | 1010.2 |
| 20260509203929 | 91 | 135 | 1.7 | 4.3 | 0.00 | 0.00 | 0.00 | 43 | 1010.5 |
| 20260509203424 | 91 | 350 | 3.5 | 5.2 | 0.00 | 0.00 | 0.00 | 42 | 1010.8 |
| 20260509202922 | 90 | 234 | 0.9 | 1.7 | 0.00 | 0.00 | 0.00 | 45 | 1010.5 |
| 20260509202418 | 90 | 287 | 0.9 | 2.6 | 0.00 | 0.00 | 0.00 | 46 | 1010.8 |
| 20260509201913 | 90 | 278 | 1.7 | 4.3 | 0.00 | 0.00 | 0.00 | 48 | 1010.8 |
| 20260509201408 | 90 | 307 | 4.3 | 6.1 | 0.00 | 0.00 | 0.00 | 46 | 1010.8 |
| 20260509200905 | 90 | 276 | 0.9 | 2.6 | 0.00 | 0.00 | 0.00 | 49 | 1010.8 |
| 20260509200359 | 89 | 109 | 0.9 | 1.7 | 0.00 | 0.00 | 0.00 | 49 | 1011.2 |
| 20260509195857 | 90 | 13 | 0.9 | 4.3 | 0.00 | 0.00 | 0.00 | 49 | 1011.2 |
| 20260509195357 | 90 | 29 | 2.6 | 4.3 | 0.00 | 0.00 | 0.00 | 47 | 1011.2 |
| 20260509194856 | 89 | 176 | 0.0 | 4.3 | 0.00 | 0.00 | 0.00 | 51 | 1011.2 |
| 20260509194354 | 91 | 213 | 0.0 | 1.7 | 0.00 | 0.00 | 0.00 | 51 | 1011.5 |
| 20260509193850 | 90 | 204 | 0.0 | 2.6 | 0.00 | 0.00 | 0.00 | 52 | 1011.2 |
| 20260509193349 | 89 | 20 | 0.9 | 5.2 | 0.00 | 0.00 | 0.00 | 51 | 1011.2 |
| 20260509192846 | 88 | 216 | 0.9 | 2.6 | 0.00 | 0.00 | 0.00 | 51 | 1011.5 |
| 20260509192342 | 88 | 10 | 2.6 | 2.6 | 0.00 | 0.00 | 0.00 | 53 | 1011.5 |
| 20260509191837 | 88 | 300 | 1.7 | 6.1 | 0.00 | 0.00 | 0.00 | 51 | 1011.2 |
| 20260509191333 | 88 | 216 | 0.9 | 1.7 | 0.00 | 0.00 | 0.00 | 52 | 1011.5 |
| 20260509190829 | 89 | 177 | 0.9 | 1.7 | 0.00 | 0.00 | 0.00 | 52 | 1011.5 |
| 20260509190326 | 88 | 235 | 0.9 | 0.9 | 0.00 | 0.00 | 0.00 | 50 | 1011.9 |
| 20260509185824 | 88 | 213 | 1.7 | 4.3 | 0.00 | 0.00 | 0.00 | 51 | 1011.2 |
| 20260509185320 | 88 | 216 | 0.0 | 2.6 | 0.00 | 0.00 | 0.00 | 48 | 1011.5 |
| 20260509184818 | 88 | 272 | 0.9 | 1.7 | 0.00 | 0.00 | 0.00 | 52 | 1011.5 |
| 20260509184315 | 89 | 247 | 1.7 | 1.7 | 0.00 | 0.00 | 0.00 | 50 | 1011.5 |
| 20260509183811 | 88 | 248 | 0.9 | 2.6 | 0.00 | 0.00 | 0.00 | 55 | 1011.9 |
| 20260509183306 | 87 | 29 | 1.7 | 2.6 | 0.00 | 0.00 | 0.00 | 51 | 1011.9 |
| 20260509182802 | 87 | 199 | 0.0 | 1.7 | 0.00 | 0.00 | 0.00 | 55 | 1011.9 |
| 20260509182300 | 87 | 209 | 0.9 | 2.6 | 0.00 | 0.00 | 0.00 | 52 | 1012.2 |
| 20260509181757 | 87 | 234 | 0.9 | 1.7 | 0.00 | 0.00 | 0.00 | 55 | 1012.2 |
| 20260509181254 | 87 | 220 | 0.9 | 2.6 | 0.00 | 0.00 | 0.00 | 53 | 1012.2 |
| 20260509180751 | 87 | 260 | 0.9 | 1.7 | 0.00 | 0.00 | 0.00 | 54 | 1012.2 |
| 20260509180248 | 86 | 335 | 0.9 | 2.6 | 0.00 | 0.00 | 0.00 | 56 | 1012.2 |
| 20260509175744 | 87 | 212 | 0.9 | 2.6 | 0.00 | 0.00 | 0.00 | 52 | 1012.2 |
| 20260509175241 | 87 | 228 | 1.7 | 2.6 | 0.00 | 0.00 | 0.00 | 54 | 1012.2 |
| 20260509174737 | 86 | 222 | 0.0 | 4.3 | 0.00 | 0.00 | 0.00 | 56 | 1012.2 |
| 20260509174232 | 86 | 271 | 1.7 | 1.7 | 0.00 | 0.00 | 0.00 | 56 | 1012.2 |
| 20260509173728 | 87 | 37 | 3.5 | 4.3 | 0.00 | 0.00 | 0.00 | 55 | 1012.5 |
| 20260509173224 | 86 | 182 | 0.9 | 1.7 | 0.00 | 0.00 | 0.00 | 56 | 1012.5 |
| 20260509172721 | 85 | 237 | 0.9 | 4.3 | 0.00 | 0.00 | 0.00 | 56 | 1012.5 |
| 20260509172217 | 86 | 305 | 1.7 | 4.3 | 0.00 | 0.00 | 0.00 | 55 | 1012.2 |
| 20260509171712 | 85 | 210 | 0.9 | 1.7 | 0.00 | 0.00 | 0.00 | 59 | 1012.5 |
| 20260509171209 | 85 | 334 | 2.6 | 4.3 | 0.00 | 0.00 | 0.00 | 57 | 1012.5 |
| 20260509170706 | 85 | 130 | 1.7 | 5.2 | 0.00 | 0.00 | 0.00 | 58 | 1012.5 |
| 20260509170202 | 84 | 280 | 1.7 | 2.6 | 0.00 | 0.00 | 0.00 | 61 | 1012.9 |
| 20260509165700 | 85 | 350 | 1.7 | 4.3 | 0.00 | 0.00 | 0.00 | 60 | 1012.9 |
| 20260509165156 | 84 | 263 | 1.7 | 4.3 | 0.00 | 0.00 | 0.00 | 61 | 1012.9 |
| 20260509164652 | 83 | 180 | 1.7 | 1.7 | 0.00 | 0.00 | 0.00 | 63 | 1012.9 |
| 20260509164148 | 83 | 74 | 2.6 | 5.2 | 0.00 | 0.00 | 0.00 | 63 | 1012.9 |
| 20260509163646 | 84 | 336 | 2.6 | 2.6 | 0.00 | 0.00 | 0.00 | 62 | 1012.9 |
| 20260509163141 | 83 | 265 | 2.6 | 2.6 | 0.00 | 0.00 | 0.00 | 64 | 1012.9 |
| 20260509162639 | 82 | 251 | 2.6 | 4.3 | 0.00 | 0.00 | 0.00 | 64 | 1012.9 |
| 20260509162134 | 82 | 291 | 3.5 | 5.2 | 0.00 | 0.00 | 0.00 | 63 | 1012.9 |
| 20260509161631 | 81 | 244 | 0.0 | 5.2 | 0.00 | 0.00 | 0.00 | 66 | 1012.9 |
| 20260509161126 | 82 | 287 | 4.3 | 5.2 | 0.00 | 0.00 | 0.00 | 63 | 1012.9 |
| 20260509160622 | 81 | 300 | 4.3 | 5.2 | 0.00 | 0.00 | 0.00 | 66 | 1012.9 |
| 20260509160118 | 81 | 222 | 2.6 | 5.2 | 0.00 | 0.00 | 0.00 | 66 | 1012.9 |
| 20260509155614 | 81 | 299 | 2.6 | 5.2 | 0.00 | 0.00 | 0.00 | 65 | 1012.9 |
| 20260509155110 | 81 | 230 | 2.6 | 5.2 | 0.00 | 0.00 | 0.00 | 67 | 1012.9 |
| 20260509154606 | 80 | 304 | 3.5 | 6.1 | 0.00 | 0.00 | 0.00 | 65 | 1012.9 |
| 20260509154104 | 80 | 19 | 2.6 | 5.2 | 0.00 | 0.00 | 0.00 | 68 | 1012.9 |
| 20260509153601 | 80 | 92 | 1.7 | 2.6 | 0.00 | 0.00 | 0.00 | 67 | 1012.9 |
| 20260509153057 | 79 | 354 | 0.0 | 4.3 | 0.00 | 0.00 | 0.00 | 69 | 1012.5 |
| 20260509152553 | 79 | 310 | 5.2 | 6.1 | 0.00 | 0.00 | 0.00 | 68 | 1012.9 |
| 20260509152051 | 79 | 281 | 1.7 | 4.3 | 0.00 | 0.00 | 0.00 | 70 | 1012.5 |
| 20260509151546 | 79 | 2 | 2.6 | 2.6 | 0.00 | 0.00 | 0.00 | 70 | 1012.5 |
| 20260509151044 | 78 | 192 | 1.7 | 2.6 | 0.00 | 0.00 | 0.00 | 72 | 1012.9 |
| 20260509150542 | 78 | 237 | 1.7 | 2.6 | 0.00 | 0.00 | 0.00 | 72 | 1012.5 |
| 20260509150041 | 77 | 324 | 2.6 | 4.3 | 0.00 | 0.00 | 0.00 | 73 | 1012.9 |
| 20260509145536 | 77 | 230 | 2.6 | 4.3 | 0.00 | 0.00 | 0.00 | 72 | 1012.5 |
| 20260509145031 | 77 | 41 | 1.7 | 4.3 | 0.00 | 0.00 | 0.00 | 70 | 1012.5 |
| 20260509144528 | 77 | 4 | 2.6 | 4.3 | 0.00 | 0.00 | 0.00 | 73 | 1012.5 |
| 20260509144025 | 77 | 295 | 2.6 | 4.3 | 0.00 | 0.00 | 0.00 | 73 | 1012.5 |
| 20260509143522 | 77 | 24 | 2.6 | 6.1 | 0.00 | 0.00 | 0.00 | 72 | 1012.9 |
| 20260509143020 | 77 | 28 | 2.6 | 4.3 | 0.00 | 0.00 | 0.00 | 73 | 1012.5 |
| 20260509142515 | 77 | 306 | 1.7 | 6.1 | 0.00 | 0.00 | 0.00 | 76 | 1012.9 |
| 20260509142011 | 76 | 68 | 1.7 | 2.6 | 0.00 | 0.00 | 0.00 | 77 | 1012.9 |
| 20260509141508 | 75 | 89 | 0.9 | 2.6 | 0.00 | 0.00 | 0.00 | 80 | 1012.9 |
| 20260509141004 | 74 | 319 | 2.6 | 4.3 | 0.00 | 0.00 | 0.00 | 81 | 1012.9 |
| 20260509140501 | 73 | 228 | 1.7 | 2.6 | 0.00 | 0.00 | 0.00 | 83 | 1012.9 |
| 20260509135959 | 73 | 1 | 2.6 | 2.6 | 0.00 | 0.00 | 0.00 | 83 | 1012.9 |
| 20260509135456 | 73 | 314 | 2.6 | 7.0 | 0.00 | 0.00 | 0.00 | 83 | 1012.9 |
| 20260509134953 | 72 | 198 | 1.7 | 4.3 | 0.00 | 0.00 | 0.00 | 84 | 1013.2 |
| 20260509134451 | 72 | 293 | 2.6 | 6.1 | 0.00 | 0.00 | 0.00 | 84 | 1012.9 |
| 20260509133948 | 72 | 242 | 2.6 | 4.3 | 0.00 | 0.00 | 0.00 | 84 | 1012.9 |
| 20260509133444 | 72 | 324 | 3.5 | 7.0 | 0.00 | 0.00 | 0.00 | 83 | 1012.9 |
| 20260509132943 | 72 | 249 | 1.7 | 5.2 | 0.00 | 0.00 | 0.00 | 84 | 1012.9 |
| 20260509132441 | 72 | 228 | 2.6 | 2.6 | 0.00 | 0.00 | 0.00 | 84 | 1012.9 |
| 20260509131937 | 71 | 312 | 0.9 | 2.6 | 0.00 | 0.00 | 0.00 | 84 | 1012.9 |
| 20260509131435 | 70 | 246 | 2.6 | 7.0 | 0.00 | 0.00 | 0.00 | 85 | 1012.9 |
| 20260509130931 | 70 | 203 | 1.7 | 5.2 | 0.00 | 0.00 | 0.00 | 85 | 1012.9 |
| 20260509130426 | 69 | 166 | 1.7 | 4.3 | 0.00 | 0.00 | 0.00 | 85 | 1012.9 |
| 20260509125924 | 69 | 304 | 1.7 | 2.6 | 0.00 | 0.00 | 0.00 | 86 | 1012.9 |
| 20260509125420 | 69 | 195 | 0.9 | 2.6 | 0.00 | 0.00 | 0.00 | 86 | 1012.9 |
| 20260509124916 | 69 | 304 | 1.7 | 4.3 | 0.00 | 0.00 | 0.00 | 87 | 1012.9 |
| 20260509124414 | 69 | 257 | 0.9 | 1.7 | 0.00 | 0.00 | 0.00 | 87 | 1012.9 |
| 20260509123911 | 69 | 252 | 1.7 | 1.7 | 0.00 | 0.00 | 0.00 | 87 | 1012.9 |
| 20260509123408 | 68 | 205 | 0.9 | 1.7 | 0.00 | 0.00 | 0.00 | 88 | 1012.5 |
| 20260509122904 | 68 | 194 | 0.0 | 0.9 | 0.00 | 0.00 | 0.00 | 89 | 1012.5 |
| 20260509122401 | 68 | 237 | 0.9 | 1.7 | 0.00 | 0.00 | 0.00 | 89 | 1012.5 |
| 20260509121858 | 67 | 222 | 2.6 | 2.6 | 0.00 | 0.00 | 0.00 | 90 | 1012.5 |
| 20260509121355 | 67 | 219 | 0.9 | 1.7 | 0.00 | 0.00 | 0.00 | 90 | 1012.5 |
| 20260509120853 | 66 | 193 | 0.9 | 1.7 | 0.00 | 0.00 | 0.00 | 90 | 1012.5 |
| 20260509120350 | 66 | 217 | 0.0 | 0.9 | 0.00 | 0.00 | 0.00 | 90 | 1012.5 |
| 20260509115848 | 66 | 192 | 0.0 | 0.9 | 0.00 | 0.00 | 0.00 | 89 | 1012.2 |
| 20260509115345 | 66 | 193 | 0.0 | 0.9 | 0.00 | 0.00 | 0.00 | 89 | 1012.5 |
| 20260509114843 | 66 | 194 | 0.0 | 0.0 | 0.00 | 0.00 | 0.00 | 88 | 1012.5 |
| 20260509114342 | 67 | 180 | 0.9 | 0.9 | 0.00 | 0.00 | 0.00 | 88 | 1012.2 |
| 20260509113840 | 67 | 183 | 0.0 | 0.9 | 0.00 | 0.00 | 0.00 | 87 | 1011.9 |
| 20260509113337 | 67 | 184 | 0.9 | 1.7 | 0.00 | 0.00 | 0.00 | 88 | 1011.9 |
| 20260509112834 | 67 | 181 | 0.0 | 0.9 | 0.00 | 0.00 | 0.00 | 87 | 1011.9 |
| 20260509112331 | 67 | 192 | 0.0 | 0.0 | 0.00 | 0.00 | 0.00 | 87 | 1011.5 |
| 20260509111828 | 67 | 198 | 0.0 | 0.0 | 0.00 | 0.00 | 0.00 | 86 | 1011.5 |
| 20260509111325 | 68 | 188 | 0.9 | 0.9 | 0.00 | 0.00 | 0.00 | 85 | 1011.2 |
| 20260509110823 | 68 | 188 | 0.0 | 0.0 | 0.00 | 0.00 | 0.00 | 84 | 1011.2 |
| 20260509110319 | 68 | 194 | 0.0 | 2.6 | 0.00 | 0.00 | 0.00 | 83 | 1011.5 |
| 20260509105817 | 68 | 158 | 1.7 | 2.6 | 0.00 | 0.00 | 0.00 | 83 | 1011.5 |
| 20260509105315 | 68 | 264 | 1.7 | 4.3 | 0.00 | 0.00 | 0.00 | 82 | 1011.5 |
| 20260509104811 | 68 | 195 | 0.9 | 4.3 | 0.00 | 0.00 | 0.00 | 81 | 1011.5 |
| 20260509104308 | 68 | 270 | 3.5 | 5.2 | 0.00 | 0.00 | 0.00 | 81 | 1011.2 |
| 20260509103806 | 68 | 194 | 0.9 | 5.2 | 0.00 | 0.00 | 0.00 | 80 | 1011.5 |
| 20260509103303 | 68 | 290 | 3.5 | 5.2 | 0.00 | 0.00 | 0.00 | 80 | 1011.5 |
| 20260509102801 | 68 | 276 | 1.7 | 5.2 | 0.00 | 0.00 | 0.00 | 78 | 1011.5 |
| 20260509102258 | 69 | 275 | 3.5 | 5.2 | 0.00 | 0.00 | 0.00 | 77 | 1011.5 |
| 20260509101754 | 69 | 283 | 1.7 | 7.0 | 0.00 | 0.00 | 0.00 | 77 | 1011.5 |
| 20260509101250 | 70 | 299 | 2.6 | 7.0 | 0.00 | 0.00 | 0.00 | 77 | 1011.5 |
| 20260509100748 | 69 | 282 | 1.7 | 6.1 | 0.00 | 0.00 | 0.00 | 81 | 1011.5 |
| 20260509100245 | 70 | 227 | 0.9 | 1.7 | 0.00 | 0.00 | 0.00 | 89 | 1011.5 |
| 20260509095741 | 70 | 234 | 0.9 | 4.3 | 0.00 | 0.00 | 0.00 | 89 | 1011.5 |
| 20260509095239 | 70 | 197 | 0.9 | 1.7 | 0.00 | 0.00 | 0.00 | 89 | 1011.2 |
| 20260509094736 | 70 | 261 | 1.7 | 7.0 | 0.00 | 0.00 | 0.00 | 89 | 1011.5 |
| 20260509094233 | 69 | 303 | 2.6 | 5.2 | 0.00 | 0.00 | 0.00 | 90 | 1010.5 |
| 20260509093731 | 69 | 301 | 2.6 | 9.6 | 0.00 | 0.00 | 0.00 | 89 | 1010.8 |
| 20260509093228 | 71 | 341 | 2.6 | 2.6 | 0.00 | 0.00 | 0.00 | 95 | 1009.4 |
| 20260509092726 | 71 | 201 | 0.9 | 4.3 | 0.00 | 0.00 | 0.00 | 95 | 1008.4 |
| 20260509092224 | 70 | 162 | 2.6 | 4.3 | 0.00 | 0.00 | 0.00 | 95 | 1008.4 |
| 20260509091722 | 70 | 205 | 4.3 | 5.2 | 0.00 | 0.00 | 0.00 | 95 | 1008.0 |
| 20260509091217 | 70 | 191 | 2.6 | 7.8 | 0.00 | 0.00 | 0.00 | 95 | 1008.4 |
| 20260509090715 | 70 | 234 | 2.6 | 4.3 | 0.00 | 0.00 | 0.00 | 95 | 1008.4 |
| 20260509090212 | 69 | 177 | 0.9 | 5.2 | 0.00 | 0.00 | 0.00 | 95 | 1008.4 |
| 20260509085710 | 69 | 195 | 0.9 | 5.2 | 0.00 | 0.00 | 0.00 | 95 | 1009.0 |
| 20260509085207 | 69 | 169 | 0.9 | 5.2 | 0.00 | 0.00 | 0.00 | 95 | 1008.7 |
| 20260509084703 | 69 | 164 | 0.9 | 4.3 | 0.00 | 0.00 | 0.00 | 95 | 1009.0 |
| 20260509084200 | 69 | 178 | 0.9 | 2.6 | 0.00 | 0.00 | 0.00 | 96 | 1009.0 |
| 20260509083658 | 69 | 204 | 2.6 | 5.2 | 0.00 | 0.00 | 0.00 | 96 | 1009.4 |
| 20260509083154 | 69 | 197 | 0.9 | 1.7 | 0.00 | 0.00 | 0.00 | 96 | 1009.4 |
| 20260509082651 | 69 | 146 | 2.6 | 4.3 | 0.00 | 0.00 | 0.00 | 95 | 1009.4 |
| 20260509082148 | 69 | 200 | 1.7 | 2.6 | 0.00 | 0.00 | 0.00 | 95 | 1009.8 |
| 20260509081645 | 69 | 177 | 2.6 | 6.1 | 0.00 | 0.00 | 0.00 | 95 | 1010.2 |
| 20260509081142 | 69 | 207 | 1.7 | 2.6 | 0.00 | 0.00 | 0.00 | 95 | 1010.5 |
| 20260509080640 | 69 | 185 | 1.7 | 4.3 | 0.00 | 0.00 | 0.00 | 95 | 1010.5 |
| 20260509080138 | 69 | 202 | 0.9 | 5.2 | 0.00 | 0.00 | 0.00 | 95 | 1010.8 |
| 20260509075636 | 69 | 169 | 1.7 | 4.3 | 0.00 | 0.00 | 0.00 | 95 | 1010.5 |
| 20260509075133 | 69 | 195 | 1.7 | 4.3 | 0.00 | 0.00 | 0.00 | 95 | 1010.2 |
| 20260509074630 | 69 | 183 | 3.5 | 4.3 | 0.00 | 0.00 | 0.00 | 95 | 1010.8 |
| 20260509074126 | 69 | 143 | 1.7 | 1.7 | 0.00 | 0.00 | 0.00 | 95 | 1011.2 |
| 20260509073623 | 69 | 174 | 1.7 | 2.6 | 0.00 | 0.00 | 0.00 | 95 | 1011.5 |
| 20260509073119 | 69 | 177 | 1.7 | 2.6 | 0.00 | 0.00 | 0.00 | 95 | 1011.5 |
| 20260509072616 | 69 | 193 | 0.9 | 2.6 | 0.00 | 0.00 | 0.00 | 95 | 1012.2 |
| 20260509072113 | 69 | 201 | 0.9 | 2.6 | 0.00 | 0.00 | 0.00 | 96 | 1012.5 |
| 20260509071610 | 69 | 194 | 0.9 | 0.9 | 0.00 | 0.00 | 0.00 | 96 | 1012.9 |
| 20260509071107 | 69 | 200 | 0.0 | 0.9 | 0.00 | 0.00 | 0.00 | 96 | 1013.2 |
| 20260509070604 | 69 | 181 | 0.9 | 2.6 | 0.00 | 0.00 | 0.00 | 96 | 1012.9 |
| 20260509070100 | 69 | 199 | 2.6 | 4.3 | 0.00 | 0.00 | 0.00 | 96 | 1013.9 |
| 20260509065556 | 69 | 276 | 2.6 | 2.6 | 0.00 | 0.00 | 0.00 | 97 | 1014.2 |
| 20260509065052 | 69 | 265 | 4.3 | 6.1 | 0.00 | 0.00 | 0.00 | 97 | 1014.2 |
| 20260509064550 | 69 | 294 | 1.7 | 1.7 | 0.00 | 0.00 | 0.00 | 97 | 1013.9 |
| 20260509064048 | 69 | 196 | 0.9 | 1.7 | 0.00 | 0.00 | 0.00 | 97 | 1013.9 |
| 20260509063543 | 69 | 220 | 0.9 | 0.9 | 0.00 | 0.00 | 0.00 | 97 | 1013.9 |
| 20260509063041 | 69 | 221 | 0.0 | 0.9 | 0.00 | 0.00 | 0.00 | 97 | 1013.6 |
| 20260509062538 | 69 | 206 | 0.9 | 1.7 | 0.00 | 0.00 | 0.00 | 97 | 1013.9 |
| 20260509062035 | 69 | 205 | 0.9 | 1.7 | 0.00 | 0.00 | 0.00 | 97 | 1013.6 |
| 20260509061532 | 68 | 232 | 0.9 | 0.9 | 0.00 | 0.00 | 0.00 | 97 | 1013.9 |
| 20260509061029 | 68 | 245 | 1.7 | 2.6 | 0.00 | 0.00 | 0.00 | 97 | 1013.9 |
| 20260509060527 | 69 | 209 | 0.9 | 0.9 | 0.00 | 0.00 | 0.00 | 97 | 1013.2 |
| 20260509060023 | 69 | 210 | 0.0 | 1.7 | 0.00 | 0.00 | 0.00 | 97 | 1013.6 |
| 20260509055518 | 68 | 279 | 2.6 | 4.3 | 0.00 | 0.00 | 0.00 | 97 | 1013.6 |
| 20260509055014 | 68 | 230 | 0.0 | 0.9 | 0.00 | 0.00 | 0.00 | 96 | 1013.2 |
| 20260509054511 | 68 | 207 | 0.0 | 0.0 | 0.00 | 0.00 | 0.00 | 96 | 1013.2 |
| 20260509054009 | 69 | 201 | 0.0 | 2.6 | 0.00 | 0.00 | 0.00 | 96 | 1013.2 |
| 20260509053507 | 68 | 226 | 2.6 | 2.6 | 0.00 | 0.00 | 0.00 | 96 | 1013.2 |
| 20260509053004 | 68 | 199 | 1.7 | 1.7 | 0.00 | 0.00 | 0.00 | 96 | 1013.6 |
| 20260509052502 | 69 | 145 | 0.9 | 0.9 | 0.00 | 0.00 | 0.00 | 96 | 1012.9 |
| 20260509051959 | 69 | 203 | 0.0 | 0.0 | 0.00 | 0.00 | 0.00 | 95 | 1012.2 |
| 20260509051457 | 69 | 203 | 0.0 | 0.0 | 0.00 | 0.00 | 0.00 | 95 | 1012.5 |
| 20260509050954 | 69 | 203 | 0.0 | 0.9 | 0.00 | 0.00 | 0.00 | 95 | 1012.5 |
| 20260509050450 | 69 | 189 | 0.0 | 0.0 | 0.00 | 0.00 | 0.00 | 95 | 1012.2 |
| 20260509045947 | 69 | 201 | 0.0 | 0.9 | 0.00 | 0.00 | 0.00 | 95 | 1012.2 |
| 20260509045444 | 69 | 186 | 0.0 | 0.9 | 0.00 | 0.00 | 0.00 | 94 | 1012.2 |
| 20260509044941 | 69 | 181 | 0.0 | 0.9 | 0.00 | 0.00 | 0.00 | 94 | 1012.2 |
| 20260509044439 | 69 | 168 | 0.0 | 0.0 | 0.00 | 0.00 | 0.00 | 94 | 1012.5 |
| 20260509043936 | 69 | 167 | 0.0 | 0.0 | 0.00 | 0.00 | 0.00 | 94 | 1012.5 |
| 20260509043432 | 70 | 167 | 0.0 | 0.0 | 0.00 | 0.00 | 0.00 | 94 | 1012.5 |
| 20260509042927 | 70 | 167 | 0.0 | 0.9 | 0.00 | 0.00 | 0.00 | 94 | 1012.5 |
| 20260509042425 | 70 | 175 | 0.0 | 0.0 | 0.00 | 0.00 | 0.00 | 93 | 1012.2 |
| 20260509041921 | 70 | 170 | 0.0 | 0.0 | 0.00 | 0.00 | 0.00 | 93 | 1012.2 |
| 20260509041418 | 70 | 167 | 0.0 | 0.9 | 0.00 | 0.00 | 0.00 | 93 | 1012.2 |
| 20260509040916 | 71 | 168 | 0.0 | 0.9 | 0.00 | 0.00 | 0.00 | 93 | 1012.5 |
| 20260509040414 | 71 | 173 | 0.0 | 0.9 | 0.00 | 0.00 | 0.00 | 93 | 1012.2 |
| 20260509035910 | 71 | 163 | 0.0 | 1.7 | 0.00 | 0.00 | 0.00 | 93 | 1012.2 |
| 20260509035407 | 71 | 173 | 0.0 | 1.7 | 0.00 | 0.00 | 0.00 | 93 | 1012.2 |
| 20260509034903 | 71 | 173 | 0.9 | 1.7 | 0.00 | 0.00 | 0.00 | 93 | 1012.2 |
| 20260509034401 | 71 | 182 | 0.9 | 0.9 | 0.00 | 0.00 | 0.00 | 93 | 1011.9 |
| 20260509033858 | 71 | 180 | 0.0 | 1.7 | 0.00 | 0.00 | 0.00 | 93 | 1011.5 |
| 20260509033355 | 71 | 181 | 0.0 | 2.6 | 0.00 | 0.00 | 0.00 | 92 | 1011.5 |
| 20260509032852 | 71 | 195 | 0.0 | 1.7 | 0.00 | 0.00 | 0.00 | 92 | 1011.2 |
| 20260509032349 | 71 | 181 | 0.0 | 0.9 | 0.00 | 0.00 | 0.00 | 92 | 1011.5 |
| 20260509031847 | 72 | 189 | 0.9 | 0.9 | 0.00 | 0.00 | 0.00 | 92 | 1011.2 |
| 20260509031339 | 72 | 187 | 0.0 | 0.9 | 0.00 | 0.00 | 0.00 | 92 | 1011.2 |
| 20260509030836 | 72 | 215 | 0.9 | 1.7 | 0.00 | 0.00 | 0.00 | 91 | 1011.2 |
| 20260509030333 | 72 | 226 | 0.9 | 1.7 | 0.00 | 0.00 | 0.00 | 91 | 1011.5 |
| 20260509025830 | 72 | 193 | 0.0 | 0.9 | 0.00 | 0.00 | 0.00 | 91 | 1011.2 |
| 20260509025325 | 72 | 190 | 0.0 | 2.6 | 0.00 | 0.00 | 0.00 | 91 | 1010.8 |
| 20260509024821 | 72 | 205 | 0.9 | 2.6 | 0.00 | 0.00 | 0.00 | 91 | 1010.5 |
| 20260509024317 | 72 | 124 | 1.7 | 5.2 | 0.00 | 0.00 | 0.00 | 91 | 1010.2 |
| 20260509023815 | 72 | 118 | 0.9 | 2.6 | 0.00 | 0.00 | 0.00 | 91 | 1010.5 |
| 20260509023312 | 72 | 189 | 1.7 | 2.6 | 0.00 | 0.00 | 0.00 | 91 | 1010.5 |
| 20260509022808 | 72 | 153 | 2.6 | 4.3 | 0.00 | 0.00 | 0.00 | 90 | 1010.5 |
| 20260509022307 | 72 | 175 | 0.9 | 1.7 | 0.00 | 0.00 | 0.00 | 89 | 1010.2 |
| 20260509021802 | 73 | 187 | 0.0 | 1.7 | 0.00 | 0.00 | 0.00 | 89 | 1010.5 |
| 20260509021300 | 73 | 186 | 0.0 | 0.9 | 0.00 | 0.00 | 0.00 | 88 | 1010.8 |
| 20260509020757 | 73 | 169 | 0.9 | 1.7 | 0.00 | 0.00 | 0.00 | 88 | 1010.8 |
| 20260509020255 | 73 | 179 | 0.0 | 1.7 | 0.00 | 0.00 | 0.00 | 88 | 1010.8 |
| 20260509015752 | 73 | 198 | 0.9 | 0.9 | 0.00 | 0.00 | 0.00 | 88 | 1010.5 |
| 20260509015251 | 73 | 193 | 0.0 | 0.0 | 0.00 | 0.00 | 0.00 | 88 | 1010.5 |
| 20260509014746 | 73 | 180 | 0.9 | 0.9 | 0.00 | 0.00 | 0.00 | 88 | 1010.8 |
| 20260509014244 | 73 | 164 | 0.0 | 0.9 | 0.00 | 0.00 | 0.00 | 88 | 1010.8 |
| 20260509013740 | 73 | 185 | 0.9 | 1.7 | 0.00 | 0.00 | 0.00 | 87 | 1011.2 |
| 20260509013236 | 73 | 179 | 0.9 | 1.7 | 0.00 | 0.00 | 0.00 | 87 | 1010.8 |
| 20260509012733 | 73 | 188 | 0.0 | 0.0 | 0.00 | 0.00 | 0.00 | 87 | 1010.5 |
| 20260509012229 | 73 | 188 | 0.0 | 0.0 | 0.00 | 0.00 | 0.00 | 87 | 1010.8 |
| 20260509011727 | 73 | 204 | 0.0 | 0.9 | 0.00 | 0.00 | 0.00 | 86 | 1010.5 |
| 20260509011225 | 73 | 185 | 0.0 | 0.9 | 0.00 | 0.00 | 0.00 | 86 | 1010.5 |
| 20260509010722 | 73 | 188 | 0.0 | 0.9 | 0.00 | 0.00 | 0.00 | 86 | 1010.2 |
| 20260509010218 | 73 | 157 | 0.9 | 0.9 | 0.00 | 0.00 | 0.00 | 86 | 1010.5 |
| 20260509005716 | 73 | 177 | 0.0 | 0.9 | 0.00 | 0.00 | 0.00 | 86 | 1010.2 |
| 20260509005213 | 74 | 160 | 0.9 | 2.6 | 0.00 | 0.00 | 0.00 | 85 | 1010.2 |
| 20260509004708 | 74 | 224 | 0.9 | 1.7 | 0.00 | 0.00 | 0.00 | 85 | 1010.2 |
| 20260509004206 | 74 | 167 | 0.0 | 2.6 | 0.00 | 0.00 | 0.00 | 84 | 1009.8 |
| 20260509003704 | 74 | 189 | 0.0 | 0.9 | 0.00 | 0.00 | 0.00 | 84 | 1009.8 |
| 20260509003201 | 74 | 194 | 0.0 | 2.6 | 0.00 | 0.00 | 0.00 | 83 | 1010.2 |
| 20260509002658 | 74 | 180 | 0.9 | 1.7 | 0.00 | 0.00 | 0.00 | 83 | 1010.2 |
| 20260509002156 | 74 | 210 | 0.0 | 0.9 | 0.00 | 0.00 | 0.00 | 83 | 1010.2 |
| 20260509001653 | 74 | 194 | 0.0 | 0.9 | 0.00 | 0.00 | 0.00 | 83 | 1010.2 |
| 20260509001148 | 74 | 189 | 0.0 | 0.9 | 0.00 | 0.00 | 0.00 | 83 | 1010.2 |
| 20260509000647 | 74 | 153 | 0.9 | 0.9 | 0.00 | 0.00 | 0.00 | 83 | 1010.5 |
| 20260509000144 | 74 | 182 | 0.9 | 1.7 | 0.00 | 0.00 | 0.00 | 83 | 1010.2 |
| 20260508235641 | 74 | 146 | 0.9 | 1.7 | 0.00 | 0.00 | 0.00 | 82 | 1010.2 |
| 20260508235137 | 74 | 172 | 0.9 | 1.7 | 0.00 | 0.00 | 0.00 | 82 | 1010.2 |
| 20260508234635 | 74 | 171 | 0.0 | 1.7 | 0.00 | 0.00 | 0.00 | 82 | 1010.8 |
| 20260508234131 | 74 | 178 | 0.0 | 0.9 | 0.00 | 0.00 | 0.00 | 82 | 1010.5 |
| 20260508233630 | 75 | 124 | 1.7 | 2.6 | 0.00 | 0.00 | 0.00 | 81 | 1010.5 |
| 20260508233127 | 75 | 186 | 0.9 | 1.7 | 0.00 | 0.00 | 0.00 | 81 | 1010.2 |
| 20260508232619 | 75 | 130 | 1.7 | 2.6 | 0.00 | 0.00 | 0.00 | 81 | 1010.5 |
| 20260508232116 | 75 | 192 | 0.9 | 2.6 | 0.00 | 0.00 | 0.00 | 81 | 1010.2 |
| 20260508231614 | 75 | 190 | 0.9 | 2.6 | 0.00 | 0.00 | 0.00 | 81 | 1010.5 |
| 20260508231110 | 75 | 205 | 0.9 | 1.7 | 0.00 | 0.00 | 0.00 | 81 | 1010.5 |
| 20260508230607 | 75 | 281 | 0.0 | 0.9 | 0.00 | 0.00 | 0.00 | 81 | 1010.5 |
| 20260508230103 | 75 | 155 | 0.9 | 1.7 | 0.00 | 0.00 | 0.00 | 80 | 1010.5 |
| 20260508225601 | 75 | 227 | 0.9 | 2.6 | 0.00 | 0.00 | 0.00 | 80 | 1010.5 |
| 20260508225057 | 75 | 193 | 0.9 | 2.6 | 0.00 | 0.00 | 0.00 | 80 | 1010.5 |
| 20260508224555 | 75 | 153 | 2.6 | 4.3 | 0.00 | 0.00 | 0.00 | 79 | 1010.2 |
| 20260508224052 | 76 | 195 | 0.9 | 2.6 | 0.00 | 0.00 | 0.00 | 78 | 1010.5 |
| 20260508223550 | 77 | 122 | 1.7 | 4.3 | 0.00 | 0.00 | 0.00 | 77 | 1010.2 |
| 20260508223047 | 76 | 203 | 0.9 | 2.6 | 0.00 | 0.00 | 0.00 | 78 | 1010.5 |
| 20260508222544 | 76 | 204 | 3.5 | 5.2 | 0.00 | 0.00 | 0.00 | 79 | 1010.2 |
| 20260508222041 | 75 | 174 | 1.7 | 2.6 | 0.00 | 0.00 | 0.00 | 79 | 1010.5 |
| 20260508221537 | 75 | 209 | 0.9 | 1.7 | 0.00 | 0.00 | 0.00 | 80 | 1010.5 |
| 20260508221033 | 75 | 195 | 0.9 | 4.3 | 0.00 | 0.00 | 0.00 | 80 | 1010.5 |
| 20260508220530 | 75 | 208 | 2.6 | 4.3 | 0.00 | 0.00 | 0.00 | 79 | 1010.5 |
| 20260508220026 | 75 | 172 | 1.7 | 4.3 | 0.00 | 0.00 | 0.00 | 79 | 1010.5 |
| 20260508215524 | 74 | 163 | 0.9 | 5.2 | 0.00 | 0.00 | 0.00 | 80 | 1010.8 |
| 20260508215020 | 75 | 173 | 1.7 | 5.2 | 0.00 | 0.00 | 0.00 | 78 | 1010.8 |
| 20260508214518 | 75 | 156 | 2.6 | 5.2 | 0.00 | 0.00 | 0.00 | 77 | 1010.8 |
| 20260508214014 | 75 | 173 | 1.7 | 1.7 | 0.00 | 0.00 | 0.00 | 78 | 1011.2 |
| 20260508213511 | 75 | 193 | 0.9 | 6.1 | 0.00 | 0.00 | 0.00 | 78 | 1010.8 |